Regional Weather Roundup
Issued by NWS

Home | Current Version | Previous Version | Graphics & Text | Print | Product List | Glossary On
Versions: 1 2 3 4 5 6 7 8 9 10 11 12 13 14 15 16 17 18 19 20 21 22 23 24 25 26 27 28 29 30 31 32 33 34 35 36 37 38 39 40 41 42 43 44 45 46 47 48 49 50
000
ASUS45 KPSR 221610
RWRAZ

ARIZONA HOURLY REGIONAL WEATHER ROUNDUP
NATIONAL WEATHER SERVICE PHOENIX AZ
900 AM MST SAT JUL 22 2017

NOTE: FAIR INDICATES FEW OR NO CLOUDS BELOW 12,000 FEET WITH NO
SIGNIFICANT WEATHER AND/OR OBSTRUCTIONS TO VISIBILITY.

AZZ001>003-036-221700-
NORTHWEST ARIZONA

CITY           SKY/WX    TMP DP  RH WIND       PRES   REMARKS
BULLHEAD CITY  SUNNY     95  57  28 CALM      29.85S
KINGMAN        SUNNY     90  54  29 MISG      30.06S
$$

AZZ004>008-015-016-018-221700-
NORTH CENTRAL ARIZONA

CITY           SKY/WX    TMP DP  RH WIND       PRES   REMARKS
GRAND CANYON   SUNNY     78  54  43 VRB5      30.30S
WILLIAMS       SUNNY     73  55  53 NW6       30.30S
PRESCOTT       MOSUNNY   76  61  59 CALM      30.18S
FLAGSTAFF      SUNNY     71  56  58 NE7       30.32R
PAYSON         SUNNY     75  61  60 VRB5      30.21S
PAGE           SUNNY     83  57  41 E7        30.14S
$$

AZZ009>014-017-221700-
NORTHEAST ARIZONA

CITY           SKY/WX    TMP DP  RH WIND       PRES   REMARKS
WINSLOW        PTSUNNY   75  60  59 N8        30.18S
SAINT JOHNS    MOSUNNY   74  62  66 VRB5      30.21R
WINDOW ROCK    MOSUNNY   76  53  44 VRB5      30.27F
SHOW LOW       MOSUNNY   68  55  64 W5        30.27S
$$

AZZ540-542>544-546-548-221700-
GREATER PHOENIX AREA

CITY           SKY/WX    TMP DP  RH WIND       PRES   REMARKS
PHOENIX        PTSUNNY   91  68  46 VRB3      29.90R
BUCKEYE        MOSUNNY   91  54  27 S3        29.90S
GLENDALE       PTSUNNY   91  70  49 CALM      29.91R
LUKE AFB       MOSUNNY   91  67  45 S3        29.89S
DEER VALLEY    MOSUNNY   89  69  51 S6        29.92R
SCOTTSDALE     MOSUNNY   89  67  47 S6        29.94R
MESA-FALCON    MOSUNNY   91  70  49 SE7       29.93R
CHANDLER       SUNNY     91  68  46 VRB6      29.91R
$$

AZZ539-553-221700-
SOUTHWEST MARICOPA COUNTY AND PINAL COUNTY

CITY           SKY/WX    TMP DP  RH WIND       PRES   REMARKS
CASA GRANDE    MOSUNNY   91  65  41 SW8       29.93S
GILA BEND      FAIR      95  54  24 SW9       29.87F
$$

AZZ503-504-507>509-221700-
SOUTHEAST ARIZONA

CITY           SKY/WX    TMP DP  RH WIND       PRES   REMARKS
TUCSON         SUNNY     83  67  58 CALM      30.03S
DAVIS-MONTHAN  SUNNY     85  68  57 CALM      30.02F
RYAN FIELD     SUNNY     84  70  61 CALM      30.02S
NOGALES        CLOUDY    79  69  71 S6        30.12S
SIERRA VISTA   PTSUNNY   77  63  61 NW3       30.17S
DOUGLAS        MOSUNNY   76  67  73 VRB3      30.13S
SAFFORD        MOSUNNY   79  68  69 CALM      30.03F
$$

AZZ532-221700-
SOUTHWEST ARIZONA

CITY           SKY/WX    TMP DP  RH WIND       PRES   REMARKS
YUMA           SUNNY     95  66  38 SE14      29.83R
$$

CAZ041-043-047-048-061-525>527-560>570-221700-
SOUTHERN CALIFORNIA

CITY           SKY/WX    TMP DP  RH WIND       PRES   REMARKS
DOWNTOWN L.A.  SUNNY     76  64  66 SE3       29.92R HAZE
L.A. AIRPORT   MOSUNNY   74  64  71 E5        29.93R
SAN DIEGO      CLOUDY    71  64  78 SW3       29.94S
BURBANK        SUNNY     71  61  70 SE6       29.94R
ONTARIO        SUNNY     73  62  68 VRB3      29.94S HAZE
RIVERSIDE      SUNNY     73  65  75 W5        29.94S
PALM SPRINGS   SUNNY     92  54  27 CALM      29.87R
EL CENTRO NAS  MOSUNNY   90  69  50 CALM      29.83S
IMPERIAL       SUNNY     90  71  53 E3        29.81R
BLYTHE         SUNNY     96  57  27 S12       29.84S
NEEDLES        SUNNY    101  55  21 MISG      29.86R
$$

NVZ020-UTZ003-221700-
SOUTHERN NEVADA-UTAH

CITY           SKY/WX    TMP DP  RH WIND       PRES   REMARKS
LAS VEGAS      MOSUNNY   94  48  20 NE5       29.94R
SALT LAKE CITY MOSUNNY   85  51  31 VRB7      30.12S
$$

NMZ009-TXZ055-221700-
NEW MEXICO-WEST TEXAS

CITY           SKY/WX    TMP DP  RH WIND       PRES   REMARKS
ALBUQUERQUE    MOSUNNY   75  58  55 W5        30.20F
EL PASO        PTSUNNY   78  66  66 S7        30.10F
$$


........................KEY........................
SKY/WX - SKY CONDITION/WEATHER
TMP    - TEMPERATURE IN FAHRENHEIT
DP     - DEW POINT IN FAHRENHEIT
RH     - RELATIVE HUMIDITY IN PERCENT
WIND   - DIRECTION AND SPEED IN MILES PER HOUR (MPH)
VRB    - VARIABLE WIND DIRECTION
PRES   - MEAN SEA LEVEL PRESSURE IN INCHES OF MERCURY
         F - FALLING PRESSURE   R - RISING PRESSURE
         S - STEADY PRESSURE
VSB    - VISIBILITY IN MILES
HX     - HEAT INDEX IN FAHRENHEIT
WCI    - WIND CHILL INDEX IN FAHRENHEIT
TC     - TEMPERATURE IN CELSIUS WHICH IS ALSO KNOWN AS
         TEMPERATURE IN CENTIGRADE
AFB    - AIR FORCE BASE
         LUKE AFB IS LUKE AIR FORCE BASE
         DAVIS-MONTHAN IS DAVIS-MONTHAN AIR FORCE BASE
NAS    - NAVAL AIR STATION
         EL CENTRO NAS IS EL CENTRO NAVAL AIR STATION
N/A    - NOT AVAILABLE




USA.gov is the U.S. government's official web portal to all federal, state and local government web resources and services.